Regional Weather Roundup
Issued by NWS

Home | Current Version | Previous Version | Graphics & Text | Print | Product List | Glossary On
Versions: 1 2 3 4 5 6 7 8 9 10 11 12 13 14 15 16 17 18 19 20 21 22 23 24 25 26 27 28 29 30 31 32 33 34 35 36 37 38 39 40 41 42 43 44 45 46 47 48 49 50
000
ASUS43 KLMK 261102
RWRKY
KENTUCKY REGIONAL WEATHER ROUNDUP
NATIONAL WEATHER SERVICE LOUISVILLE KY
700 AM EDT WED APR 26 2017

NOTE "FAIR" INDICATES FEW OR NO CLOUDS BELOW 12,000 FEET
WITH NO SIGNIFICANT WEATHER AND/OR OBSTRUCTIONS TO VISIBILITY.

KYZ001>023-026-027-061>063-070>075-261200-
WESTERN AND SOUTH CENTRAL KENTUCKY

CITY           SKY/WX    TMP DP  RH WIND       PRES   REMARKS
PADUCAH        PTCLDY    66  55  67 S8        29.61R
HENDERSON      CLOUDY    62  56  80 S12       29.63R
OWENSBORO      PTCLDY    61  56  83 S10       29.66R
HOPKINSVILLE   CLEAR     62  56  81 S9        29.69R
BOWLING GREEN  PTCLDY    54  54 100 CALM      29.72R FOG
GLASGOW        NOT AVBL
$$

KYZ024-025-028>034-038-045-046-053-261200-
NORTH CENTRAL KENTUCKY

CITY           SKY/WX    TMP DP  RH WIND       PRES   REMARKS
LOUISVILLE/SDF MOCLDY    59  55  87 SE8       29.69R
LOUISVILLE/LOU CLEAR     60  56  86 SE3       29.70R
FORT KNOX      CLEAR     58  55  91 S8        29.69R
$$

KYZ035>037-039>044-047>052-055>060-089>105-261200-
NORTHEAST KENTUCKY

CITY           SKY/WX    TMP DP  RH WIND       PRES   REMARKS
LEXINGTON      CLEAR     57  53  86 S8        29.75R
COVINGTON      PTCLDY    56  53  90 S8        29.71R
FRANKFORT      CLEAR     56  52  86 SE5       29.72R
$$

KYZ054-064>069-076>088-106>120-261200-
SOUTHEAST KENTUCKY

CITY           SKY/WX    TMP DP  RH WIND       PRES   REMARKS
JACKSON        CLEAR     56  54  93 CALM      29.79R
LONDON         CLEAR     51  48  89 CALM      29.79R
SOMERSET       NOT AVBL
MIDDLESBORO    FOG       49  49 100 CALM      29.82R VSB 1/2
MONTICELLO     SUNNY     52  51  97 N9        29.79R
$$




USA.gov is the U.S. government's official web portal to all federal, state and local government web resources and services.